Tracking 30970 objects as of 3-Jul-2025
HD Live streaming from Space Station
objects crossing your sky now

TELSTAR 302

Track TELSTAR 302 now!
TELSTAR 302 is classified as:


NORAD ID: 15237
Int'l Code: 1984-093D
Perigee: 35,913.0 km
Apogee: 35,954.3 km
Inclination: 14.3 °
Period: 1,443.3 minutes
Semi major axis: 42304 km
RCS: 4.6276 m2 (large)
Launch date: August 30, 1984
Source: United States (US)
Launch site: AIR FORCE EASTERN TEST RANGE (AFETR)
Your satellite tracking list
Your tracking list is empty




NASA's NSSDC Master Catalog

Two Line Element Set (TLE):
1 15237U 84093D   25184.04231501  .00000039  00000-0  00000+0 0  9999
2 15237  14.3214 347.9656 0004870 157.9726  29.6353  0.99774779121237
Source of the keplerian elements: AFSPC